Time,TemperatureF,DewpointF,PressureIn,WindDirection,WindDirectionDegrees,WindSpeedMPH,WindSpeedGustMPH,Humidity,HourlyPrecipIn,Conditions,Clouds,dailyrainin,SoftwareType,DateUTC
2013-08-10 00:07:00,51.9,50.0,30.05,NE,44,0.0,-999.0,92,-99.99,,,0.00,weatherlink.com 1.10,2013-08-10 04:07:00,
2013-08-10 00:22:00,51.8,50.0,30.05,NE,44,0.0,-999.0,92,-99.99,,,0.00,weatherlink.com 1.10,2013-08-10 04:22:00,
2013-08-10 00:37:00,51.9,50.0,30.06,NE,44,0.0,-999.0,92,-99.99,,,0.00,weatherlink.com 1.10,2013-08-10 04:37:00,
2013-08-10 00:52:00,51.9,50.0,30.06,NE,44,0.0,-999.0,92,-99.99,,,0.00,weatherlink.com 1.10,2013-08-10 04:52:00,
2013-08-10 01:07:00,51.8,50.0,30.06,NE,44,0.0,-999.0,92,-99.99,,,0.00,weatherlink.com 1.10,2013-08-10 05:07:00,
2013-08-10 01:21:00,51.6,49.0,30.06,NE,44,0.0,-999.0,92,-99.99,,,0.00,weatherlink.com 1.10,2013-08-10 05:21:00,
2013-08-10 01:36:00,51.9,50.0,30.07,NE,44,1.0,-999.0,92,-99.99,,,0.00,weatherlink.com 1.10,2013-08-10 05:36:00,
2013-08-10 01:51:00,52.1,50.0,30.07,NE,44,1.0,-999.0,92,-99.99,,,0.00,weatherlink.com 1.10,2013-08-10 05:51:00,
2013-08-10 02:06:00,52.7,50.0,30.07,NE,44,1.0,-999.0,90,-99.99,,,0.00,weatherlink.com 1.10,2013-08-10 06:06:00,
2013-08-10 02:21:00,53.1,50.0,30.07,NE,44,1.0,-999.0,89,-99.99,,,0.00,weatherlink.com 1.10,2013-08-10 06:21:00,
2013-08-10 02:36:00,53.5,50.0,30.07,NE,44,0.0,-999.0,88,-99.99,,,0.00,weatherlink.com 1.10,2013-08-10 06:36:00,
2013-08-10 02:51:00,53.8,50.0,30.07,NE,44,0.0,-999.0,87,-99.99,,,0.00,weatherlink.com 1.10,2013-08-10 06:51:00,
2013-08-10 03:06:00,53.8,50.0,30.07,NE,44,0.0,-999.0,87,-99.99,,,0.00,weatherlink.com 1.10,2013-08-10 07:06:00,
2013-08-10 03:21:00,53.5,50.0,30.07,NE,44,0.0,-999.0,87,-99.99,,,0.00,weatherlink.com 1.10,2013-08-10 07:21:00,
2013-08-10 03:36:00,53.3,50.0,30.08,NE,44,1.0,-999.0,88,-99.99,,,0.00,weatherlink.com 1.10,2013-08-10 07:36:00,
2013-08-10 03:51:00,53.2,50.0,30.08,NE,44,0.0,-999.0,88,-99.99,,,0.00,weatherlink.com 1.10,2013-08-10 07:51:00,
2013-08-10 04:06:00,53.3,50.0,30.08,NE,44,0.0,-999.0,87,-99.99,,,0.00,weatherlink.com 1.10,2013-08-10 08:06:00,
2013-08-10 04:21:00,53.3,50.0,30.08,NE,44,0.0,-999.0,87,-99.99,,,0.00,weatherlink.com 1.10,2013-08-10 08:21:00,
2013-08-10 04:36:00,53.2,50.0,30.08,NE,44,0.0,-999.0,87,-99.99,,,0.00,weatherlink.com 1.10,2013-08-10 08:36:00,
2013-08-10 04:51:00,53.2,49.0,30.08,NE,44,0.0,-999.0,86,-99.99,,,0.00,weatherlink.com 1.10,2013-08-10 08:51:00,
2013-08-10 05:06:00,52.6,49.0,30.09,NE,44,0.0,-999.0,87,-99.99,,,0.00,weatherlink.com 1.10,2013-08-10 09:06:00,
2013-08-10 05:21:00,51.9,49.0,30.09,NE,44,0.0,-999.0,88,-99.99,,,0.00,weatherlink.com 1.10,2013-08-10 09:21:00,
2013-08-10 05:36:00,52.2,49.0,30.10,NE,44,0.0,-999.0,88,-99.99,,,0.00,weatherlink.com 1.10,2013-08-10 09:36:00,
2013-08-10 05:51:00,52.1,49.0,30.10,NE,44,0.0,-999.0,88,-99.99,,,0.00,weatherlink.com 1.10,2013-08-10 09:51:00,
2013-08-10 06:06:00,51.6,49.0,30.11,NE,44,0.0,-999.0,89,-99.99,,,0.00,weatherlink.com 1.10,2013-08-10 10:06:00,
2013-08-10 06:21:00,51.2,48.0,30.11,NE,44,0.0,-999.0,90,-99.99,,,0.00,weatherlink.com 1.10,2013-08-10 10:21:00,
2013-08-10 06:36:00,51.1,48.0,30.12,NE,44,0.0,-999.0,90,-99.99,,,0.00,weatherlink.com 1.10,2013-08-10 10:36:00,
2013-08-10 06:51:00,51.4,49.0,30.12,NE,44,1.0,-999.0,91,-99.99,,,0.00,weatherlink.com 1.10,2013-08-10 10:51:00,
2013-08-10 07:06:00,52.0,49.0,30.13,NE,44,0.0,-999.0,89,-99.99,,,0.00,weatherlink.com 1.10,2013-08-10 11:06:00,
2013-08-10 07:21:00,51.9,49.0,30.13,NE,44,0.0,-999.0,90,-99.99,,,0.00,weatherlink.com 1.10,2013-08-10 11:21:00,
2013-08-10 07:36:00,52.3,49.0,30.13,NE,44,0.0,-999.0,89,-99.99,,,0.00,weatherlink.com 1.10,2013-08-10 11:36:00,
2013-08-10 07:51:00,53.0,50.0,30.13,NE,44,0.0,-999.0,88,-99.99,,,0.00,weatherlink.com 1.10,2013-08-10 11:51:00,
2013-08-10 08:06:00,53.5,50.0,30.14,NE,44,0.0,-999.0,88,-99.99,,,0.00,weatherlink.com 1.10,2013-08-10 12:06:00,
2013-08-10 08:21:00,54.2,51.0,30.13,NE,44,0.0,-999.0,88,-99.99,,,0.00,weatherlink.com 1.10,2013-08-10 12:21:00,
2013-08-10 08:36:00,54.9,52.0,30.14,NE,44,0.0,-999.0,88,-99.99,,,0.00,weatherlink.com 1.10,2013-08-10 12:36:00,
2013-08-10 08:51:00,56.5,53.0,30.13,NE,44,0.0,-999.0,87,-99.99,,,0.00,weatherlink.com 1.10,2013-08-10 12:51:00,
2013-08-10 09:06:00,58.0,54.0,30.14,NE,44,0.0,-999.0,85,-99.99,,,0.00,weatherlink.com 1.10,2013-08-10 13:06:00,
2013-08-10 09:22:00,59.1,54.0,30.14,NE,44,0.0,-999.0,82,-99.99,,,0.00,weatherlink.com 1.10,2013-08-10 13:22:00,
2013-08-10 09:37:00,61.2,54.0,30.14,NE,55,0.0,-999.0,76,-99.99,,,0.00,weatherlink.com 1.10,2013-08-10 13:37:00,
2013-08-10 09:52:00,62.9,54.0,30.14,NE,55,0.0,-999.0,72,-99.99,,,0.00,weatherlink.com 1.10,2013-08-10 13:52:00,
2013-08-10 10:07:00,63.1,54.0,30.14,East,86,0.0,-999.0,71,-99.99,,,0.00,weatherlink.com 1.10,2013-08-10 14:07:00,
2013-08-10 10:22:00,64.3,53.0,30.14,NE,56,2.0,-999.0,67,-99.99,,,0.00,weatherlink.com 1.10,2013-08-10 14:22:00,
2013-08-10 10:37:00,65.1,53.0,30.14,NE,55,0.0,-999.0,64,-99.99,,,0.00,weatherlink.com 1.10,2013-08-10 14:37:00,
2013-08-10 10:52:00,66.5,52.0,30.14,NE,51,0.0,-999.0,61,-99.99,,,0.00,weatherlink.com 1.10,2013-08-10 14:52:00,
2013-08-10 11:07:00,67.5,52.0,30.13,NE,51,0.0,-999.0,58,-99.99,,,0.00,weatherlink.com 1.10,2013-08-10 15:07:00,
2013-08-10 11:22:00,67.9,54.0,30.14,NE,55,0.0,-999.0,61,-99.99,,,0.00,weatherlink.com 1.10,2013-08-10 15:22:00,
2013-08-10 11:37:00,67.3,55.0,30.14,NE,46,3.0,-999.0,64,-99.99,,,0.00,weatherlink.com 1.10,2013-08-10 15:37:00,
2013-08-10 11:52:00,67.5,55.0,30.14,SSW,206,2.0,-999.0,64,-99.99,,,0.00,weatherlink.com 1.10,2013-08-10 15:52:00,
2013-08-10 12:07:00,68.3,54.0,30.14,ESE,123,0.0,-999.0,61,-99.99,,,0.00,weatherlink.com 1.10,2013-08-10 16:07:00,
2013-08-10 12:22:00,67.4,54.0,30.14,NE,44,2.0,-999.0,63,-99.99,,,0.00,weatherlink.com 1.10,2013-08-10 16:22:00,
2013-08-10 12:37:00,66.8,55.0,30.14,South,184,2.0,-999.0,66,-99.99,,,0.00,weatherlink.com 1.10,2013-08-10 16:37:00,
2013-08-10 12:52:00,68.3,55.0,30.14,NE,42,2.0,-999.0,62,-99.99,,,0.00,weatherlink.com 1.10,2013-08-10 16:52:00,
2013-08-10 13:07:00,68.8,56.0,30.14,East,94,0.0,-999.0,64,-99.99,,,0.00,weatherlink.com 1.10,2013-08-10 17:07:00,
2013-08-10 13:22:00,68.7,55.0,30.14,ENE,71,1.0,-999.0,61,-99.99,,,0.00,weatherlink.com 1.10,2013-08-10 17:22:00,
2013-08-10 13:37:00,68.8,56.0,30.14,NE,49,1.0,-999.0,63,-99.99,,,0.00,weatherlink.com 1.10,2013-08-10 17:37:00,
2013-08-10 13:52:00,68.9,56.0,30.14,NE,47,3.0,-999.0,64,-99.99,,,0.00,weatherlink.com 1.10,2013-08-10 17:52:00,
2013-08-10 14:07:00,67.8,56.0,30.13,NE,37,1.0,-999.0,66,-99.99,,,0.00,weatherlink.com 1.10,2013-08-10 18:07:00,
2013-08-10 14:22:00,67.6,56.0,30.13,NE,45,0.0,-999.0,67,-99.99,,,0.00,weatherlink.com 1.10,2013-08-10 18:22:00,
2013-08-10 14:37:00,67.6,56.0,30.13,ENE,77,1.0,-999.0,66,-99.99,,,0.00,weatherlink.com 1.10,2013-08-10 18:37:00,
2013-08-10 14:52:00,67.6,56.0,30.13,NNE,33,1.0,-999.0,67,-99.99,,,0.00,weatherlink.com 1.10,2013-08-10 18:52:00,
2013-08-10 15:07:00,68.4,55.0,30.13,NE,42,4.0,-999.0,63,-99.99,,,0.00,weatherlink.com 1.10,2013-08-10 19:07:00,
2013-08-10 15:22:00,68.2,56.0,30.13,NE,39,3.0,-999.0,66,-99.99,,,0.00,weatherlink.com 1.10,2013-08-10 19:22:00,
2013-08-10 15:37:00,67.8,56.0,30.13,NE,40,1.0,-999.0,66,-99.99,,,0.00,weatherlink.com 1.10,2013-08-10 19:37:00,
2013-08-10 15:52:00,67.9,57.0,30.13,NE,46,0.0,-999.0,68,-99.99,,,0.00,weatherlink.com 1.10,2013-08-10 19:52:00,
2013-08-10 16:07:00,67.7,56.0,30.13,NE,47,2.0,-999.0,66,-99.99,,,0.00,weatherlink.com 1.10,2013-08-10 20:07:00,
2013-08-10 16:22:00,67.2,57.0,30.13,ENE,62,0.0,-999.0,69,-99.99,,,0.00,weatherlink.com 1.10,2013-08-10 20:22:00,
2013-08-10 16:37:00,66.5,55.0,30.12,NE,46,3.0,-999.0,66,-99.99,,,0.00,weatherlink.com 1.10,2013-08-10 20:37:00,
2013-08-10 16:52:00,66.2,56.0,30.13,NE,48,1.0,-999.0,69,-99.99,,,0.00,weatherlink.com 1.10,2013-08-10 20:52:00,
2013-08-10 17:07:00,66.3,55.0,30.12,NNE,28,5.0,-999.0,68,-99.99,,,0.00,weatherlink.com 1.10,2013-08-10 21:07:00,
2013-08-10 17:22:00,66.0,56.0,30.12,NE,44,3.0,-999.0,70,-99.99,,,0.00,weatherlink.com 1.10,2013-08-10 21:22:00,
2013-08-10 17:37:00,66.3,56.0,30.11,ENE,64,0.0,-999.0,70,-99.99,,,0.00,weatherlink.com 1.10,2013-08-10 21:37:00,
2013-08-10 17:52:00,66.1,55.0,30.11,NE,44,0.0,-999.0,67,-99.99,,,0.00,weatherlink.com 1.10,2013-08-10 21:52:00,
2013-08-10 18:07:00,66.1,55.0,30.11,NE,44,1.0,-999.0,68,-99.99,,,0.00,weatherlink.com 1.10,2013-08-10 22:07:00,
2013-08-10 18:22:00,66.0,55.0,30.11,NE,42,3.0,-999.0,67,-99.99,,,0.00,weatherlink.com 1.10,2013-08-10 22:22:00,
2013-08-10 18:37:00,65.7,54.0,30.11,ENE,71,1.0,-999.0,67,-99.99,,,0.00,weatherlink.com 1.10,2013-08-10 22:37:00,
2013-08-10 18:52:00,65.6,54.0,30.11,NE,40,1.0,-999.0,66,-99.99,,,0.00,weatherlink.com 1.10,2013-08-10 22:52:00,
2013-08-10 19:07:00,65.6,54.0,30.10,NE,41,1.0,-999.0,67,-99.99,,,0.00,weatherlink.com 1.10,2013-08-10 23:07:00,
2013-08-10 19:22:00,65.5,55.0,30.10,NE,45,1.0,-999.0,68,-99.99,,,0.00,weatherlink.com 1.10,2013-08-10 23:22:00,
2013-08-10 19:37:00,65.2,53.0,30.10,NE,42,0.0,-999.0,66,-99.99,,,0.00,weatherlink.com 1.10,2013-08-10 23:37:00,
2013-08-10 19:52:00,64.9,55.0,30.10,NE,42,1.0,-999.0,70,-99.99,,,0.00,weatherlink.com 1.10,2013-08-10 23:52:00,
2013-08-10 20:07:00,64.0,54.0,30.09,NE,42,0.0,-999.0,71,-99.99,,,0.00,weatherlink.com 1.10,2013-08-11 00:07:00,
2013-08-10 20:22:00,63.1,54.0,30.09,NE,41,0.0,-999.0,73,-99.99,,,0.00,weatherlink.com 1.10,2013-08-11 00:22:00,
2013-08-10 20:37:00,62.0,54.0,30.09,NE,41,0.0,-999.0,76,-99.99,,,0.00,weatherlink.com 1.10,2013-08-11 00:37:00,
2013-08-10 20:52:00,60.8,54.0,30.09,NE,42,0.0,-999.0,79,-99.99,,,0.00,weatherlink.com 1.10,2013-08-11 00:52:00,
2013-08-10 21:07:00,59.7,54.0,30.09,NE,42,0.0,-999.0,82,-99.99,,,0.00,weatherlink.com 1.10,2013-08-11 01:07:00,
2013-08-10 21:22:00,58.7,54.0,30.09,NE,42,0.0,-999.0,84,-99.99,,,0.00,weatherlink.com 1.10,2013-08-11 01:22:00,
2013-08-10 21:37:00,57.6,53.0,30.09,NE,41,0.0,-999.0,85,-99.99,,,0.00,weatherlink.com 1.10,2013-08-11 01:37:00,
2013-08-10 21:52:00,56.8,53.0,30.09,NE,42,0.0,-999.0,86,-99.99,,,0.00,weatherlink.com 1.10,2013-08-11 01:52:00,
2013-08-10 22:07:00,56.0,52.0,30.09,NE,42,0.0,-999.0,87,-99.99,,,0.00,weatherlink.com 1.10,2013-08-11 02:07:00,
2013-08-10 22:22:00,55.5,52.0,30.09,NE,42,0.0,-999.0,87,-99.99,,,0.00,weatherlink.com 1.10,2013-08-11 02:22:00,
2013-08-10 22:37:00,55.0,52.0,30.09,NE,42,0.0,-999.0,88,-99.99,,,0.00,weatherlink.com 1.10,2013-08-11 02:37:00,
2013-08-10 22:52:00,54.6,52.0,30.09,NE,41,0.0,-999.0,89,-99.99,,,0.00,weatherlink.com 1.10,2013-08-11 02:52:00,
2013-08-10 23:07:00,54.8,52.0,30.09,NE,41,0.0,-999.0,90,-99.99,,,0.00,weatherlink.com 1.10,2013-08-11 03:07:00,
2013-08-10 23:37:00,54.7,52.0,30.08,NE,42,0.0,-999.0,89,-99.99,,,0.00,weatherlink.com 1.10,2013-08-11 03:37:00,
2013-08-10 23:52:00,54.5,51.0,30.09,NE,42,0.0,-999.0,89,-99.99,,,0.00,weatherlink.com 1.10,2013-08-11 03:52:00,